Vertical_Velocity
-3 -1 0 -3 -5 -9 -5 -1 8 8 5 2 5 6 -0 -5 -8 -3 3 -2 -6 1
-4 -0 1 4 6 3 1 3 1 4 8 11 9 6 5 10 7 3 8 4 -1 -6
1 0 -2 -4 -4 -3 1 3 2 -1 -3 2 2 -6 -4 -3 3 5 4 26 11 16
-3 -1 -1 -2 -1 -1 0 0 0 1 3 -1 -8 -4 -5 -1 0 3 2 30 16 15
-1 -2 1 1 -2 -1 -6 -2 -5 -3 3 -0 -1 -1 0 -3 -3 1 3 10 28 4
2 3 -4 -5 -2 -3 -2 1 1 -4 -3 4 2 -4 1 -6 -8 4 -4 -9 3 -1
-2 -4 -4 -4 -0 -1 -4 -5 -1 2 1 1 -1 1 -2 -0 2 -9 -3 -2 -4 -1
-5 -5 -4 -3 -1 -0 -1 -3 0 -3 -9 0 -0 3 1 -1 7 2 -2 -5 0 -5
-3 -1 1 0 -3 2 -1 -5 -5 5 -3 -0 -0 2 2 -2 1 -1 4 -5 -3 -5
0 0 -2 -2 -2 -4 -2 -2 0 -1 -0 0 3 -6 15 46 -5 -5 2 -0 -1 -1
-1 -0 -3 -5 -6 -2 1 1 -4 -1 1 -4 -5 -5 -8 -10 -5 -5 1 0 0 -6
-3 -1 -2 -1 -2 -2 -9 -9 -5 -3 -2 -7 0 -3 -3 -4 -5 -4 4 6 -1 -2
-3 -4 -4 -2 -0 -1 -8 -6 -3 1 -2 -4 -2 0 -1 -4 -6 0 -5 2 3 -3
-4 -1 -2 2 -3 -5 -4 -5 -6 -6 -5 -5 -7 2 -3 -3 -2 -2 1 3 2 0
Height
5734 5729 5724 5718 5711 5704 5695 5687 5679 5671 5663 5656 5650 5645 5642 5639 5635 5630 5624 5620 5616 5619
5720 5714 5707 5698 5691 5685 5677 5668 5659 5649 5640 5631 5624 5618 5613 5608 5602 5599 5594 5588 5585 5583
5702 5696 5689 5682 5674 5666 5656 5645 5634 5620 5609 5598 5591 5586 5580 5575 5569 5566 5564 5566 5560 5559
5687 5680 5673 5663 5653 5643 5632 5621 5608 5594 5583 5573 5566 5558 5552 5548 5546 5542 5540 5542 5534 5533
5671 5663 5652 5642 5631 5619 5608 5597 5584 5572 5559 5552 5546 5541 5536 5532 5530 5526 5522 5518 5519 5516
5653 5642 5632 5621 5609 5598 5585 5573 5561 5550 5543 5537 5531 5524 5519 5513 5512 5511 5507 5506 5499 5498
5631 5622 5611 5601 5589 5575 5563 5551 5543 5536 5529 5521 5513 5507 5501 5497 5494 5491 5490 5489 5486 5484
5612 5601 5591 5579 5568 5555 5543 5535 5527 5519 5512 5504 5496 5490 5485 5482 5479 5476 5473 5472 5472 5473
5594 5583 5571 5557 5546 5536 5529 5520 5512 5504 5493 5486 5479 5474 5469 5465 5466 5464 5461 5459 5458 5456
5574 5563 5549 5539 5530 5523 5515 5506 5496 5486 5478 5472 5463 5455 5453 5452 5453 5452 5450 5448 5447 5445
5554 5542 5532 5524 5518 5511 5501 5491 5480 5473 5466 5460 5452 5445 5443 5442 5441 5441 5438 5436 5434 5433
5536 5527 5520 5512 5505 5497 5490 5478 5470 5462 5457 5451 5445 5439 5436 5434 5431 5429 5426 5422 5420 5419
5522 5516 5511 5503 5495 5486 5477 5468 5460 5454 5448 5443 5439 5434 5429 5425 5421 5418 5414 5410 5407 5404
5511 5507 5500 5493 5486 5478 5470 5462 5454 5448 5442 5437 5432 5426 5421 5417 5412 5407 5402 5398 5393 5390